KD8ZLZ-13 Weather Reports


time (UTC)temp
C
wind
direction
speed
KPH
gust
KPH
rain 1hr
cm
rain 24hr
cm
rain mn
cm
humidity
%
barometer
mb
20260503211313 17 236 17.7 37.0 0.00 0.00 0.00 37 1010.9
20260503210313 17 221 12.9 24.1 0.00 0.00 0.00 38 1011.2
20260503205313 17 211 16.1 25.7 0.00 0.00 0.00 38 1011.2
20260503204313 17 225 14.5 27.4 0.00 0.00 0.00 38 1011.2
20260503203313 17 214 19.3 33.8 0.00 0.00 0.00 37 1011.2
20260503202313 17 226 17.7 30.6 0.00 0.00 0.00 37 1011.2
20260503201313 18 220 12.9 27.4 0.00 0.00 0.00 37 1011.5
20260503200313 17 222 17.7 33.8 0.00 0.00 0.00 36 1011.5
20260503195313 16 214 16.1 33.8 0.00 0.00 0.00 37 1011.5
20260503194313 17 223 14.5 27.4 0.00 0.00 0.00 36 1011.5
20260503193313 17 228 16.1 33.8 0.00 0.00 0.00 35 1011.9
20260503192313 17 230 16.1 35.4 0.00 0.00 0.00 36 1011.9
20260503191313 17 216 16.1 37.0 0.00 0.00 0.00 35 1012.2
20260503190313 17 233 14.5 25.7 0.00 0.00 0.00 35 1012.2
20260503185313 17 224 17.7 35.4 0.00 0.00 0.00 36 1012.2
20260503184313 17 205 17.7 32.2 0.00 0.00 0.00 36 1012.6
20260503183313 17 214 20.9 30.6 0.00 0.00 0.00 36 1012.6
20260503182313 16 229 19.3 37.0 0.00 0.00 0.00 36 1012.6
20260503181313 16 223 20.9 32.2 0.00 0.00 0.00 34 1013.2
20260503180312 16 229 19.3 33.8 0.00 0.00 0.00 36 1013.2
20260503175313 16 221 12.9 25.7 0.00 0.00 0.00 38 1013.2
20260503174312 16 214 16.1 29.0 0.00 0.00 0.00 38 1013.6
20260503173313 16 220 14.5 25.7 0.00 0.00 0.00 37 1013.6
20260503172312 16 225 16.1 30.6 0.00 0.00 0.00 38 1013.9
20260503171312 16 230 12.9 27.4 0.00 0.00 0.00 40 1014.2
20260503170312 15 228 12.9 24.1 0.00 0.00 0.00 41 1014.2
20260503150312 14 224 14.5 25.7 0.00 0.00 0.00 41 1014.6
20260503140312 10 230 9.7 17.7 0.00 0.00 0.00 50 1014.9
20260503131312 8 223 9.7 16.1 0.00 0.00 0.00 55 1015.3
20260503130312 7 218 11.3 17.7 0.00 0.00 0.00 57 1015.3
20260503110312 2 210 4.8 8.0 0.00 0.00 0.00 66 1015.3
20260503090312 1 205 3.2 6.4 0.00 0.00 0.00 73 1015.9
20260503081312 1 199 1.6 4.8 0.00 0.00 0.00 80 1016.3
20260503080312 1 195 1.6 3.2 0.00 0.00 0.00 83 1016.3
20260503072312 1 192 1.6 3.2 0.00 0.00 0.00 73 1016.3
20260503071312 1 190 1.6 3.2 0.00 0.00 0.00 72 1016.6
20260503070312 1 195 1.6 4.8 0.00 0.00 0.00 71 1016.6
20260503060312 1 191 1.6 3.2 0.00 0.00 0.00 78 1017.0
20260503054312 1 203 1.6 3.2 0.00 0.00 0.00 83 1017.0
20260503053312 1 190 0.0 1.6 0.00 0.00 0.00 81 1017.0
20260503052312 1 196 1.6 3.2 0.00 0.00 0.00 78 1017.0
20260503051312 2 196 1.6 3.2 0.00 0.00 0.00 80 1017.0
20260503050312 1 199 1.6 3.2 0.00 0.00 0.00 80 1017.0
20260503045312 1 195 0.0 1.6 0.00 0.00 0.00 86 1017.0
20260503044312 1 196 1.6 3.2 0.00 0.00 0.00 86 1017.0
20260503043312 1 187 0.0 1.6 0.00 0.00 0.00 86 1017.0
20260503042312 1 177 0.0 0.0 0.00 0.00 0.00 82 1017.3
20260503041312 1 178 0.0 1.6 0.00 0.00 0.00 81 1017.3
20260503040312 1 190 0.0 1.6 0.00 0.00 0.00 85 1017.3
20260503035312 1 185 0.0 1.6 0.00 0.00 0.00 85 1017.3
20260503034312 2 190 0.0 1.6 0.00 0.00 0.00 86 1017.3
20260503033312 2 179 0.0 1.6 0.00 0.00 0.00 80 1017.3
20260503032312 2 184 0.0 1.6 0.00 0.00 0.00 82 1017.3
20260503031312 2 165 0.0 0.0 0.00 0.00 0.00 81 1017.6
20260503030311 2 178 0.0 1.6 0.00 0.00 0.00 82 1017.6
20260503025312 2 150 0.0 0.0 0.00 0.00 0.00 79 1017.6
20260503024312 2 165 0.0 0.0 0.00 0.00 0.00 79 1017.6
20260503023312 2 176 0.0 0.0 0.00 0.00 0.00 79 1017.6
20260503022311 2 161 0.0 0.0 0.00 0.00 0.00 78 1017.6
20260503021312 3 172 0.0 0.0 0.00 0.00 0.00 79 1017.3
20260503020311 3 160 0.0 0.0 0.00 0.00 0.00 76 1017.3
20260503015311 3 158 0.0 0.0 0.00 0.00 0.00 72 1017.3
20260503014311 4 163 0.0 0.0 0.00 0.00 0.00 70 1017.3
20260503013311 5 166 0.0 0.0 0.00 0.00 0.00 67 1017.3
20260503012311 5 176 0.0 1.6 0.00 0.00 0.00 62 1017.3
20260503011311 6 179 0.0 1.6 0.00 0.00 0.00 51 1017.3
20260503010312 6 181 0.0 3.2 0.00 0.00 0.00 49 1017.3
20260503005311 7 191 0.0 1.6 0.00 0.00 0.00 52 1017.3
20260503004311 7 181 0.0 1.6 0.00 0.00 0.00 51 1017.3
20260503003311 8 196 1.6 3.2 0.00 0.00 0.00 46 1017.0
20260503002311 8 198 1.6 3.2 0.00 0.00 0.00 44 1017.3
20260503001311 8 222 0.0 1.6 0.00 0.00 0.00 42 1017.3
20260503000311 8 241 1.6 3.2 0.00 0.00 0.00 43 1017.3
20260502235311 8 292 3.2 6.4 0.00 0.00 0.00 40 1017.3
20260502234311 8 285 3.2 6.4 0.00 0.00 0.00 41 1017.3
20260502233311 8 253 3.2 6.4 0.00 0.00 0.00 42 1017.3
20260502232311 8 287 4.8 6.4 0.00 0.00 0.00 41 1017.3
20260502231311 8 302 6.4 11.3 0.00 0.00 0.00 41 1017.3
20260502230311 8 287 6.4 14.5 0.00 0.00 0.00 41 1017.3
20260502225311 8 253 4.8 9.7 0.00 0.00 0.00 40 1017.3
20260502224311 8 283 6.4 12.9 0.00 0.00 0.00 40 1017.3
20260502223311 8 233 4.8 11.3 0.00 0.00 0.00 40 1017.3
20260502222311 8 280 3.2 6.4 0.00 0.00 0.00 40 1017.3
20260502221311 8 291 6.4 11.3 0.00 0.00 0.00 38 1017.3
20260502220311 8 275 4.8 14.5 0.00 0.00 0.00 39 1017.3
20260502215311 8 291 4.8 8.0 0.00 0.00 0.00 39 1017.3
20260502214311 8 317 6.4 11.3 0.00 0.00 0.00 38 1017.3
20260502213311 8 297 6.4 14.5 0.00 0.00 0.00 39 1017.3
20260502212311 8 281 8.0 16.1 0.00 0.00 0.00 38 1017.6